Weather in Ciudad Guayana

Venezuela     8°19′55″N   62°41′31″W
temp.,
°C
wind,
m/s
gust,
m/s
humid.,
%
clouds,
%
prec.,
mm/h
press.,
hPa
HPBL,
m
13 april, tue
tue1323:00+26ne3681100 1.4 1012313
02:00+25ene258774 1.4 1011215
05:00+24e24875 0.0 1011225
08:00+27ese35706 0.0 1013528
11:00+34e244134 0.0 10121946
14:00+34nne4442100 0.1 10081400
17:00+32ne3648100 0.0 1007844
20:00+29ene396445 0.0 1010530
14 april, wed
wed1423:00+27ene267395 0.0 1012339
02:00+25ene2384100 0.5 1011252
05:00+25e2584100 0.3 1011324
08:00+27e257297 0.3 1013686
11:00+33e354694 0.0 10131992
14:00+33nnw124098 0.1 10091064
17:00+33n2441100 0.0 10071020
20:00+30ne385776 0.1 1010630
15 april, thu
thu1523:00+26ene3574100 0.0 1012291
02:00+25ene237946 0.0 1010209
05:00+24ne128220 0.0 1011174
08:00+27ene2467100 0.0 1013518
11:00+34e243927 0.0 10122052
14:00+38e352723 0.0 10073283
17:00+33ne7946100 0.0 10071300
20:00+28ene51061100 0.0 1011844
16 april, fri
fri1623:00+26ene411695 0.0 1012704
02:00+25e310735 0.0 1011741
05:00+24e27775 0.0 1011492
08:00+27e366485 0.0 10131070
11:00+33e484026 0.0 10122125
14:00+37e572936 0.0 10083227
17:00+34ene66377 0.0 10081885
20:00+28e59595 0.0 1011910
17 april, sat
sat1723:00+26ene4107214 0.0 1013639
02:00+25ene387546 0.0 1012628
05:00+24e2678100 0.0 1013402
08:00+27e376317 0.0 1015886
11:00+34e4736100 0.0 10132550
14:00+37ene5629100 0.0 10093252
17:00+32ene6743100 0.0 10091656
20:00+28ene59595 0.0 1012874